Regional Weather Roundup
Issued by NWS

Home | Current Version | Previous Version | Text Only | Print | Product List | Glossary On
Versions: 1 2 3 4 5 6 7 8 9 10 11 12 13 14 15 16 17 18 19 20 21 22 23 24 25 26 27 28 29 30 31 32 33 34 35 36 37 38 39 40 41 42 43 44 45 46 47 48 49 50
000
ASUS42 KFFC 161603
RWRGA
WEATHER ROUNDUP FOR GEORGIA
NATIONAL WEATHER SERVICE PEACHTREE CITY GA
1200 PM EDT TUE SEP 16 2014

NOTE: "FAIR" INDICATES FEW OR NO CLOUDS BELOW 12,000 FEET WITH NO
SIGNIFICANT WEATHER AND/OR OBSTRUCTIONS TO VISIBILITY.

* = USE WITH CAUTION. THE STATIONS MARKED WITH AN ASTERISK MAY NOT
REPORT WEATHER SUCH AS PRECIPITATION, FOG, OR THUNDER AND ARE NOT
QUALITY CONTROLLED BY NWS.

THE REMARK "TC" DENOTES TEMPERATURE READING IN DEGREES CELSIUS.

GAZ001>058-161700-
NORTH GEORGIA

CITY           SKY/WX    TMP DP  RH WIND       PRES   REMARKS
ATLANTA        PTSUNNY   80  70  71 NW5       30.09F
ATHENS         PTSUNNY   83  71  67 NW6       30.07F
CHAMBLEE       PTSUNNY   80  69  69 NW5       30.09F
PEACHTREE CITY PTSUNNY   79  72  79 N6        30.10F
ROME           MOSUNNY   83  67  58 N6        30.08F
WEST ATLANTA   PTSUNNY   79  71  76 NW5       30.09F
GAINESVILLE    MOSUNNY   80  67  64 W7        30.11
CARTERSVILLE   CLOUDY    76  70  82 CALM      30.10F


CITY           SKY/WX    TMP DP  RH WIND       PRES   REMARKS
DALTON*        MOSUNNY   77  68  73 NW5       30.10F
LAWRENCEVILLE* MOSUNNY   81  66  61 NW6       30.09F
KENNESAW*      PTSUNNY   79  68  69 NW6       30.12S
$$

GAZ059>098-102>109-161700-
CENTRAL GEORGIA

CITY           SKY/WX    TMP DP  RH WIND       PRES   REMARKS
AUGUSTA-BUSH   PTSUNNY   82  71  69 NW7       30.05F
AUGUSTA-DANIEL MOSUNNY   82  72  71 VRB6      30.07F
COLUMBUS       MOSUNNY   85  70  60 N6        30.06F
MACON          CLOUDY    78  73  84 NE5       30.07F
ROBINS AFB     PTSUNNY   79  73  82 N5        30.07F


CITY           SKY/WX    TMP DP  RH WIND       PRES   REMARKS
LAGRANGE*      MOSUNNY   82  75  79 N6        30.09S
SYLVANIA*      PTSUNNY   83  75  75 NW6       30.06F HX  91
$$

GAZ099>101-110>166-161700-
SOUTH GEORGIA

CITY           SKY/WX    TMP DP  RH WIND       PRES   REMARKS
SAVANNAH       CLOUDY    82  73  74 NW5       30.05F
VALDOSTA       LGT RAIN  81  74  79 CALM      30.06F
ALMA           CLOUDY    81  73  76 VRB3      30.06S
ST SIMONS      CLOUDY    79  73  82 CALM      30.05F
FT STEWART     PTSUNNY   81  72  75 VRB3      30.04F
ALBANY         PTSUNNY   86  74  67 NE6       30.08S HX  94
HUNTER AFB     PTSUNNY   83  74  73 N7        30.03S HX  90
MOODY AFB      CLOUDY    80  73  78 VRB2      30.06S
BRUNSWICK      CLOUDY    79  73  83 CALM      30.07R


CITY           SKY/WX    TMP DP  RH WIND       PRES   REMARKS
BAINBRIDGE*    CLOUDY    86  77  74 CALM      30.06F HX  97
MOULTRIE*      MOSUNNY   81  75  83 W3        30.07S
VIDALIA*       CLOUDY    79  73  83 N5        30.07S
WAYCROSS*      CLOUDY    84  78  83 N6        30.05S HX  94
DOUGLAS*       CLOUDY    82  73  74 NE6       30.07S
$$


USA.gov is the U.S. government's official web portal to all federal, state and local government web resources and services.